Deer Park, WA
on Friday, February 15, 2013

Friday
Previous Day Next Day
Daily Summary
 ActualAverageRecord
Temperature
Mean Temperature °F 30°F  
Max Temperature 45°F 39°F 48°F (2003)
Min Temperature 15°F 21°F 10°F (2005)
Degree Days
Heating Degree Days 35 35  
Month to date heating degree days 518 533  
Since 1 July heating degree days 4626 4929  
Cooling Degree Days 0 0  
Month to date cooling degree days 0 0  
Year to date cooling degree days 0 0  
Moisture
Dew Point 23°F   
Average Humidity 79    
Maximum Humidity 100    
Minimum Humidity 58    
Precipitation
Precipitation 0.00 in 0.05 in 0.32 in (2014)
Month to date precipitation 0.03 0.95  
Year to date precipitation 1.53 3.58  
Wind
Wind Speed 1 mph   
Max Wind Speed 6 mph   
Max Gust Speed 7 mph   
Visibility 8 miles   
Events Fog   

Key: T is trace of precipitation, MM is missing value
Source: NWS Daily Summary
Time(PST)TemperatureDew PointHumidity Pressure Visibility Wind DirectionWind SpeedGust SpeedPrecipitationEvents Conditions
12:53 AM 23.0°F 21.0°F 92% 30.58 in 10.0 miles Calm Calm - N/A   Clear
1:53 AM 19.9°F 19.0°F 96% 30.58 in 10.0 miles Calm Calm - N/A   Clear
2:53 AM 21.0°F 19.0°F 92% 30.59 in 7.0 miles Calm Calm - N/A   Clear
3:16 AM 19.4°F 17.6°F 93% 30.52 in 1.5 miles Calm Calm - N/A   Clear
3:22 AM 19.4°F 19.4°F 100% 30.52 in 0.5 miles Calm Calm - N/A Fog Light Freezing Fog
3:42 AM 19.4°F 19.4°F 100% 30.51 in 1.2 miles Calm Calm - N/A   Partly Cloudy
3:46 AM 17.6°F 17.6°F 100% 30.51 in 3.0 miles Calm Calm - N/A   Partly Cloudy
3:53 AM 21.0°F 19.9°F 96% 30.59 in 4.0 miles Calm Calm - N/A   Clear
4:53 AM 19.9°F 18.0°F 92% 30.59 in 10.0 miles Calm Calm - N/A   Clear
5:53 AM 16.0°F 15.1°F 96% 30.60 in 10.0 miles WNW 3.5 mph - N/A   Clear
6:53 AM 15.1°F 12.9°F 91% 30.61 in 10.0 miles NNW 3.5 mph - N/A   Clear
7:53 AM 19.0°F 17.1°F 92% 30.60 in 10.0 miles Calm Calm - N/A   Clear
8:53 AM 24.1°F 24.1°F 100% 30.60 in 10.0 miles Calm Calm - N/A   Clear
9:53 AM 28.9°F 26.1°F 89% 30.59 in 10.0 miles West 3.5 mph - N/A   Clear
10:53 AM 34.0°F 28.9°F 82% 30.57 in 10.0 miles Calm Calm - N/A   Clear
11:53 AM 37.0°F 30.0°F 76% 30.55 in 10.0 miles WSW 3.5 mph - N/A   Scattered Clouds
12:53 PM 39.9°F 30.0°F 68% 30.52 in 10.0 miles Calm Calm - N/A   Clear
1:53 PM 44.1°F 30.9°F 60% 30.50 in 10.0 miles Calm Calm - N/A   Clear
2:53 PM 44.1°F 32.0°F 63% 30.47 in 10.0 miles Calm Calm - N/A   Clear
3:53 PM 44.1°F 30.9°F 60% 30.45 in 10.0 miles Calm Calm - N/A   Clear
4:53 PM 41.0°F 30.9°F 67% 30.43 in 10.0 miles Calm Calm - N/A   Clear
5:53 PM 32.0°F 28.0°F 85% 30.44 in 10.0 miles Calm Calm - N/A   Clear
6:53 PM 28.0°F 25.0°F 88% 30.43 in 10.0 miles NW 4.6 mph - N/A   Clear
7:53 PM 27.0°F 25.0°F 92% 30.40 in 10.0 miles Calm Calm - N/A   Clear
8:53 PM 28.9°F 26.1°F 89% 30.37 in 10.0 miles Calm Calm - N/A   Clear
9:53 PM 26.1°F 24.1°F 92% 30.35 in 10.0 miles North 4.6 mph - N/A   Clear
10:53 PM 24.1°F 23.0°F 96% 30.34 in 10.0 miles NNW 3.5 mph - N/A   Clear
11:53 PM 25.0°F 24.1°F 96% 30.32 in 10.0 miles Calm Calm - N/A   Clear
Moon Phase
Feb. 15 Feb. 17 Feb. 25 Mar. 04 Mar. 11
Sunrise:06:55 AM (PST) Moon Rise:09:04 AM (PST)2/15
Sunset:05:12 PM (PST) Moon Set:11:50 PM (PST)2/15

Copyright © 2014 The Weather Underground, Inc.